Time,TemperatureF,DewpointF,PressureIn,WindDirection,WindDirectionDegrees,WindSpeedMPH,WindSpeedGustMPH,Humidity,HourlyPrecipIn,Conditions,Clouds,dailyrainin,SoftwareType,DateUTC
2013-07-11 00:00:00,80.4,75.1,29.93,NE,45,5.0,12.0,84,0.00,,,0.00,VWS V14.01,2013-07-11 06:00:00,
2013-07-11 00:30:00,80.5,76.6,29.92,NE,45,3.0,8.0,88,0.00,,,0.00,VWS V14.01,2013-07-11 06:30:00,
2013-07-11 01:00:00,81.6,78.4,29.90,NE,45,2.0,9.0,90,0.00,,,0.00,VWS V15.00,2013-07-11 07:00:00,
2013-07-11 01:30:00,82.4,77.8,29.89,NE,45,6.0,15.0,86,0.00,,,0.00,VWS V14.01,2013-07-11 07:30:00,
2013-07-11 02:00:00,82.4,77.8,29.90,ENE,68,6.0,15.0,86,0.00,,,0.00,VWS V15.00,2013-07-11 08:00:00,
2013-07-11 02:30:00,82.7,77.7,29.91,ENE,68,6.0,15.0,85,0.00,,,0.00,VWS V15.00,2013-07-11 08:30:00,
2013-07-11 03:00:00,82.5,77.9,29.91,ENE,68,7.0,15.0,86,0.00,,,0.00,VWS V14.01,2013-07-11 09:00:00,
2013-07-11 03:30:00,82.5,78.2,29.91,ENE,68,5.0,11.0,87,0.00,,,0.00,VWS V14.01,2013-07-11 09:30:00,
2013-07-11 04:00:00,82.2,78.3,29.91,East,90,6.0,12.0,88,0.00,,,0.00,VWS V15.00,2013-07-11 10:00:00,
2013-07-11 04:30:00,81.7,77.5,29.90,ESE,112,7.0,11.0,87,0.00,,,0.00,VWS V14.01,2013-07-11 10:30:00,
2013-07-11 05:00:00,81.7,77.8,29.90,SE,135,4.0,9.0,88,0.00,,,0.00,VWS V14.01,2013-07-11 11:00:00,
2013-07-11 05:30:00,81.6,76.7,29.91,SSE,158,1.0,5.0,85,0.00,,,0.00,VWS V14.01,2013-07-11 11:30:00,
2013-07-11 06:00:00,80.1,76.6,29.92,WSW,248,2.0,8.0,89,0.00,,,0.00,VWS V14.01,2013-07-11 12:00:00,
2013-07-11 06:30:00,81.1,77.2,29.93,WSW,248,2.0,6.0,88,0.00,,,0.00,VWS V14.01,2013-07-11 12:30:00,
2013-07-11 07:00:00,81.9,77.3,29.93,WSW,248,4.0,8.0,86,0.00,,,0.00,VWS V15.00,2013-07-11 13:00:00,
2013-07-11 07:30:00,82.7,77.4,29.94,WSW,248,4.0,8.0,84,0.00,,,0.00,VWS V15.00,2013-07-11 13:30:00,
2013-07-11 08:00:00,83.9,77.8,29.94,WSW,248,3.0,9.0,82,0.00,,,0.00,VWS V15.00,2013-07-11 14:00:00,
2013-07-11 08:30:00,83.1,77.8,29.94,SSW,202,6.0,10.0,84,0.00,,,0.00,VWS V15.00,2013-07-11 14:30:00,
2013-07-11 09:00:00,84.2,78.1,29.95,SSW,202,5.0,9.0,82,0.00,,,0.00,VWS V15.00,2013-07-11 15:00:00,
2013-07-11 09:30:00,83.6,77.9,29.96,SSW,202,4.0,9.0,83,0.00,,,0.00,VWS V14.01,2013-07-11 15:30:00,
2013-07-11 10:00:00,84.7,78.6,29.97,NW,315,1.0,4.0,82,0.00,,,0.00,VWS V15.00,2013-07-11 16:00:00,
2013-07-11 10:30:00,86.9,78.4,29.96,NW,315,2.0,8.0,76,0.00,,,0.00,VWS V14.01,2013-07-11 16:30:00,
2013-07-11 11:00:00,87.8,78.5,29.95,NNE,22,3.0,8.0,74,0.00,,,0.00,VWS V14.01,2013-07-11 17:00:00,
2013-07-11 11:30:00,86.8,77.9,29.94,ENE,68,5.0,10.0,75,0.00,,,0.00,VWS V14.01,2013-07-11 17:30:00,
2013-07-11 12:00:00,85.9,78.6,29.93,ENE,68,4.0,10.0,79,0.00,,,0.00,VWS V15.00,2013-07-11 18:00:00,
2013-07-11 12:30:00,85.9,78.2,29.92,ENE,68,5.0,13.0,78,0.00,,,0.00,VWS V14.01,2013-07-11 18:30:00,
2013-07-11 13:00:00,86.1,78.1,29.91,NE,45,4.0,11.0,77,0.00,,,0.00,VWS V14.01,2013-07-11 19:00:00,
2013-07-11 13:30:00,86.5,77.6,29.89,NE,45,4.0,12.0,75,0.00,,,0.00,VWS V14.01,2013-07-11 19:30:00,
2013-07-11 14:00:00,85.1,77.5,29.88,ENE,68,4.0,10.0,78,0.00,,,0.00,VWS V14.01,2013-07-11 20:00:00,
2013-07-11 14:30:00,85.1,78.2,29.87,ENE,68,5.0,11.0,80,0.00,,,0.00,VWS V14.01,2013-07-11 20:30:00,
2013-07-11 15:24:00,85.1,78.6,29.85,ENE,68,2.0,5.0,81,0.00,,,0.00,VWS V14.01,2013-07-11 21:24:00,
2013-07-11 15:29:00,85.2,78.3,29.84,ENE,63,5.0,10.0,80,0.00,,,0.00,VWS V14.01,2013-07-11 21:29:00,
2013-07-11 15:30:00,85.2,78.7,29.84,NE,44,5.0,10.0,81,0.00,,,0.00,VWS V14.01,2013-07-11 21:30:00,
2013-07-11 15:34:00,85.3,78.4,29.84,NE,49,6.0,8.0,80,0.00,,,0.00,VWS V14.01,2013-07-11 21:34:00,
2013-07-11 15:39:00,85.8,78.2,29.84,NE,51,9.0,11.0,78,0.00,,,0.00,VWS V14.01,2013-07-11 21:39:00,
2013-07-11 15:44:00,85.6,78.0,29.84,East,101,8.0,11.0,78,0.00,,,0.00,VWS V14.01,2013-07-11 21:44:00,
2013-07-11 15:49:00,85.6,78.0,29.84,ENE,70,8.0,13.0,78,0.00,,,0.00,VWS V14.01,2013-07-11 21:49:00,
2013-07-11 15:54:00,85.5,78.2,29.84,ENE,63,8.0,13.0,79,0.00,,,0.00,VWS V14.01,2013-07-11 21:54:00,
2013-07-11 15:59:00,85.3,78.1,29.84,ENE,70,6.0,13.0,79,0.00,,,0.00,VWS V14.01,2013-07-11 21:59:00,
2013-07-11 16:00:00,85.3,78.1,29.84,NE,43,5.0,13.0,79,0.00,,,0.00,VWS V15.00,2013-07-11 22:00:00,
2013-07-11 16:05:00,85.3,78.1,29.84,NNE,30,7.0,8.0,79,0.00,,,0.00,VWS V14.01,2013-07-11 22:05:00,
2013-07-11 16:10:00,85.1,77.9,29.84,ENE,63,6.0,11.0,79,0.00,,,0.00,VWS V14.01,2013-07-11 22:10:00,
2013-07-11 16:15:00,85.6,78.3,29.83,NNE,29,3.0,11.0,79,0.00,,,0.00,VWS V14.01,2013-07-11 22:15:00,
2013-07-11 16:20:00,85.9,78.6,29.84,NE,43,2.0,11.0,79,0.00,,,0.00,VWS V14.01,2013-07-11 22:20:00,
2013-07-11 16:25:00,85.8,78.5,29.84,ENE,75,3.0,11.0,79,0.00,,,0.00,VWS V14.01,2013-07-11 22:25:00,
2013-07-11 16:30:00,85.7,78.8,29.84,ENE,63,3.0,11.0,80,0.00,,,0.00,VWS V14.01,2013-07-11 22:30:00,
2013-07-11 16:35:00,85.9,78.2,29.84,ENE,58,6.0,9.0,78,0.00,,,0.00,VWS V14.01,2013-07-11 22:35:00,
2013-07-11 16:40:00,85.6,78.3,29.84,ENE,71,2.0,9.0,79,0.00,,,0.00,VWS V14.01,2013-07-11 22:40:00,
2013-07-11 16:45:00,85.8,78.5,29.84,North,8,7.0,9.0,79,0.00,,,0.00,VWS V14.01,2013-07-11 22:45:00,
2013-07-11 16:50:00,85.6,78.3,29.84,East,79,4.0,9.0,79,0.00,,,0.00,VWS V14.01,2013-07-11 22:50:00,
2013-07-11 16:55:00,85.2,78.3,29.84,North,353,2.0,11.0,80,0.00,,,0.00,VWS V14.01,2013-07-11 22:55:00,
2013-07-11 17:00:00,85.2,78.3,29.84,ENE,72,4.0,4.0,80,0.00,,,0.00,VWS V14.01,2013-07-11 23:00:00,
2013-07-11 17:05:00,85.4,78.5,29.84,NE,56,2.0,7.0,80,0.00,,,0.00,VWS V14.01,2013-07-11 23:05:00,
2013-07-11 17:10:00,85.2,78.3,29.84,North,5,1.0,11.0,80,0.00,,,0.00,VWS V14.01,2013-07-11 23:10:00,
2013-07-11 17:15:00,85.2,78.3,29.84,North,8,7.0,11.0,80,0.00,,,0.00,VWS V14.01,2013-07-11 23:15:00,
2013-07-11 17:21:00,85.1,78.2,29.84,NNE,29,3.0,11.0,80,0.00,,,0.00,VWS V14.01,2013-07-11 23:21:00,
2013-07-11 17:26:00,85.1,78.2,29.85,NE,41,3.0,11.0,80,0.00,,,0.00,VWS V14.01,2013-07-11 23:26:00,
2013-07-11 17:30:00,84.8,77.9,29.85,NNE,20,6.0,11.0,80,0.00,,,0.00,VWS V15.00,2013-07-11 23:30:00,
2013-07-11 17:31:00,84.8,77.9,29.85,ENE,63,5.0,7.0,80,0.00,,,0.00,VWS V14.01,2013-07-11 23:31:00,
2013-07-11 17:36:00,84.7,77.8,29.85,NE,54,4.0,8.0,80,0.00,,,0.00,VWS V14.01,2013-07-11 23:36:00,
2013-07-11 17:41:00,84.5,78.0,29.85,NNE,32,6.0,9.0,81,0.00,,,0.00,VWS V14.01,2013-07-11 23:41:00,
2013-07-11 17:46:00,84.4,77.9,29.85,NE,49,5.0,9.0,81,0.00,,,0.00,VWS V14.01,2013-07-11 23:46:00,
2013-07-11 17:51:00,84.2,77.7,29.86,ENE,59,3.0,9.0,81,0.00,,,0.00,VWS V14.01,2013-07-11 23:51:00,
2013-07-11 17:56:00,84.2,77.7,29.85,ENE,63,1.0,9.0,81,0.00,,,0.00,VWS V14.01,2013-07-11 23:56:00,
2013-07-11 18:00:00,84.1,77.6,29.86,North,356,4.0,9.0,81,0.00,,,0.00,VWS V15.00,2013-07-12 00:00:00,
2013-07-11 18:01:00,84.1,77.6,29.86,North,1,3.0,4.0,81,0.00,,,0.00,VWS V14.01,2013-07-12 00:01:00,
2013-07-11 18:06:00,83.9,77.8,29.86,NW,326,2.0,6.0,82,0.00,,,0.00,VWS V14.01,2013-07-12 00:06:00,
2013-07-11 18:11:00,83.6,77.5,29.86,NE,44,2.0,6.0,82,0.00,,,0.00,VWS V14.01,2013-07-12 00:11:00,
2013-07-11 18:16:00,83.5,77.8,29.87,North,6,4.0,6.0,83,0.00,,,0.00,VWS V14.01,2013-07-12 00:16:00,
2013-07-11 18:21:00,83.3,77.6,29.87,NE,37,0.0,7.0,83,0.00,,,0.00,VWS V14.01,2013-07-12 00:21:00,
2013-07-11 18:26:00,83.1,77.4,29.87,North,352,1.0,7.0,83,0.00,,,0.00,VWS V14.01,2013-07-12 00:26:00,
2013-07-11 18:30:00,83.0,77.3,29.87,ENE,61,1.0,7.0,83,0.00,,,0.00,VWS V15.00,2013-07-12 00:30:00,
2013-07-11 18:31:00,82.9,77.2,29.87,ENE,65,3.0,4.0,83,0.00,,,0.00,VWS V14.01,2013-07-12 00:31:00,
2013-07-11 18:36:00,82.9,77.6,29.87,ENE,61,2.0,6.0,84,0.00,,,0.00,VWS V14.01,2013-07-12 00:36:00,
2013-07-11 18:41:00,82.8,77.5,29.87,North,356,1.0,6.0,84,0.00,,,0.00,VWS V14.01,2013-07-12 00:41:00,
2013-07-11 18:46:00,82.8,77.5,29.87,North,8,2.0,6.0,84,0.00,,,0.00,VWS V14.01,2013-07-12 00:46:00,
2013-07-11 18:51:00,82.7,77.4,29.87,NNE,20,4.0,7.0,84,0.00,,,0.00,VWS V14.01,2013-07-12 00:51:00,
2013-07-11 18:56:00,82.7,77.4,29.87,NE,56,0.0,7.0,84,0.00,,,0.00,VWS V14.01,2013-07-12 00:56:00,
2013-07-11 19:00:00,82.6,77.3,29.88,East,84,1.0,8.0,84,0.00,,,0.00,VWS V15.00,2013-07-12 01:00:00,
2013-07-11 19:01:00,82.6,77.3,29.88,ENE,76,2.0,4.0,84,0.00,,,0.00,VWS V14.01,2013-07-12 01:01:00,
2013-07-11 19:07:00,82.5,77.2,29.87,NE,41,5.0,6.0,84,0.00,,,0.00,VWS V14.01,2013-07-12 01:07:00,
2013-07-11 19:12:00,82.5,77.2,29.88,NE,35,0.0,8.0,84,0.00,,,0.00,VWS V14.01,2013-07-12 01:12:00,
2013-07-11 19:17:00,82.5,76.8,29.88,NNE,20,2.0,8.0,83,0.00,,,0.00,VWS V14.01,2013-07-12 01:17:00,
2013-07-11 19:22:00,82.5,76.8,29.88,NNE,21,6.0,9.0,83,0.00,,,0.00,VWS V14.01,2013-07-12 01:22:00,
2013-07-11 19:27:00,82.5,76.8,29.88,NNE,27,1.0,9.0,83,0.00,,,0.00,VWS V14.01,2013-07-12 01:27:00,
2013-07-11 19:30:00,82.4,76.7,29.89,NNE,18,2.0,9.0,83,0.00,,,0.00,VWS V15.00,2013-07-12 01:30:00,
2013-07-11 19:32:00,82.4,76.7,29.89,North,3,2.0,4.0,83,0.00,,,0.00,VWS V14.01,2013-07-12 01:32:00,
2013-07-11 19:37:00,82.3,77.0,29.89,NE,44,3.0,5.0,84,0.00,,,0.00,VWS V14.01,2013-07-12 01:37:00,
2013-07-11 19:42:00,82.3,77.0,29.89,North,360,0.0,8.0,84,0.00,,,0.00,VWS V14.01,2013-07-12 01:42:00,
2013-07-11 19:47:00,82.3,77.0,29.90,NNW,334,3.0,9.0,84,0.00,,,0.00,VWS V14.01,2013-07-12 01:47:00,
2013-07-11 19:52:00,82.4,77.4,29.90,NNE,15,5.0,9.0,85,0.00,,,0.00,VWS V14.01,2013-07-12 01:52:00,
2013-07-11 19:57:00,82.4,77.4,29.90,NE,54,3.0,10.0,85,0.00,,,0.00,VWS V14.01,2013-07-12 01:57:00,
2013-07-11 20:00:00,82.5,77.5,29.90,NNE,19,5.0,10.0,85,0.00,,,0.00,VWS V15.00,2013-07-12 02:00:00,
2013-07-11 20:02:00,82.5,77.5,29.90,NNE,15,7.0,11.0,85,0.00,,,0.00,VWS V14.01,2013-07-12 02:02:00,
2013-07-11 20:07:00,82.5,77.9,29.91,ENE,58,5.0,12.0,86,0.00,,,0.00,VWS V14.01,2013-07-12 02:07:00,
2013-07-11 20:12:00,82.5,77.9,29.91,NE,50,5.0,12.0,86,0.00,,,0.00,VWS V14.01,2013-07-12 02:12:00,
2013-07-11 20:18:00,82.5,77.9,29.91,ENE,68,7.0,12.0,86,0.00,,,0.00,VWS V14.01,2013-07-12 02:18:00,
2013-07-11 20:23:00,82.5,77.9,29.91,ENE,77,6.0,12.0,86,0.00,,,0.00,VWS V14.01,2013-07-12 02:23:00,
2013-07-11 20:28:00,82.5,77.9,29.91,NNE,24,7.0,12.0,86,0.00,,,0.00,VWS V14.01,2013-07-12 02:28:00,
2013-07-11 20:30:00,82.5,77.9,29.91,NNW,341,3.0,12.0,86,0.00,,,0.00,VWS V15.00,2013-07-12 02:30:00,
2013-07-11 20:33:00,82.5,77.9,29.91,East,79,3.0,11.0,86,0.00,,,0.00,VWS V14.01,2013-07-12 02:33:00,
2013-07-11 20:38:00,82.4,77.8,29.92,ENE,76,9.0,11.0,86,0.00,,,0.00,VWS V14.01,2013-07-12 02:38:00,
2013-07-11 20:43:00,82.5,77.9,29.91,North,8,5.0,12.0,86,0.00,,,0.00,VWS V14.01,2013-07-12 02:43:00,
2013-07-11 20:48:00,82.4,77.8,29.91,NE,41,4.0,13.0,86,0.00,,,0.00,VWS V14.01,2013-07-12 02:48:00,
2013-07-11 20:53:00,82.5,77.9,29.91,SE,129,2.0,13.0,86,0.00,,,0.00,VWS V14.01,2013-07-12 02:53:00,
2013-07-11 20:58:00,82.5,77.9,29.91,ENE,65,2.0,13.0,86,0.00,,,0.00,VWS V14.01,2013-07-12 02:58:00,
2013-07-11 21:00:00,82.5,77.9,29.91,NNE,13,2.0,13.0,86,0.00,,,0.00,VWS V15.00,2013-07-12 03:00:00,
2013-07-11 21:03:00,82.4,77.4,29.91,NE,46,6.0,9.0,85,0.00,,,0.00,VWS V14.01,2013-07-12 03:03:00,
2013-07-11 21:08:00,82.4,77.4,29.91,NE,42,3.0,10.0,85,0.00,,,0.00,VWS V14.01,2013-07-12 03:08:00,
2013-07-11 21:13:00,82.4,77.4,29.91,ENE,60,3.0,10.0,85,0.00,,,0.00,VWS V14.01,2013-07-12 03:13:00,
2013-07-11 21:18:00,82.3,77.3,29.91,East,96,4.0,10.0,85,0.00,,,0.00,VWS V14.01,2013-07-12 03:18:00,
2013-07-11 21:23:00,82.3,77.7,29.91,East,82,5.0,10.0,86,0.00,,,0.00,VWS V14.01,2013-07-12 03:23:00,
2013-07-11 21:28:00,82.3,77.7,29.91,NE,35,2.0,13.0,86,0.00,,,0.00,VWS V14.01,2013-07-12 03:28:00,
2013-07-11 21:30:00,82.3,77.3,29.91,NNE,18,7.0,13.0,85,0.00,,,0.00,VWS V15.00,2013-07-12 03:30:00,
2013-07-11 21:33:00,82.3,77.3,29.91,NE,37,4.0,10.0,85,0.00,,,0.00,VWS V14.01,2013-07-12 03:33:00,
2013-07-11 21:38:00,82.3,77.7,29.92,NE,41,3.0,10.0,86,0.00,,,0.00,VWS V14.01,2013-07-12 03:38:00,
2013-07-11 21:43:00,82.3,77.7,29.91,NE,49,8.0,12.0,86,0.00,,,0.00,VWS V14.01,2013-07-12 03:43:00,
2013-07-11 21:48:00,82.3,77.7,29.92,NNE,18,3.0,12.0,86,0.00,,,0.00,VWS V14.01,2013-07-12 03:48:00,
2013-07-11 21:54:00,82.3,77.7,29.92,ENE,77,5.0,12.0,86,0.00,,,0.00,VWS V14.01,2013-07-12 03:54:00,
2013-07-11 21:59:00,82.3,77.7,29.92,North,9,7.0,12.0,86,0.00,,,0.00,VWS V14.01,2013-07-12 03:59:00,
2013-07-11 22:00:00,82.3,77.7,29.92,North,4,4.0,12.0,86,0.00,,,0.00,VWS V15.00,2013-07-12 04:00:00,
2013-07-11 22:01:00,82.3,78.1,29.92,NE,37,5.0,6.0,87,0.00,,,0.00,VWS V14.01,2013-07-12 04:01:00,
2013-07-11 22:06:00,82.4,78.1,29.92,NE,41,5.0,9.0,87,0.00,,,0.00,VWS V14.01,2013-07-12 04:06:00,
2013-07-11 22:11:00,82.3,78.1,29.92,ENE,58,2.0,9.0,87,0.00,,,0.00,VWS V14.01,2013-07-12 04:11:00,
2013-07-11 22:16:00,82.4,78.1,29.92,North,1,4.0,10.0,87,0.00,,,0.00,VWS V14.01,2013-07-12 04:16:00,
2013-07-11 22:21:00,82.5,78.2,29.92,East,79,5.0,10.0,87,0.00,,,0.00,VWS V14.01,2013-07-12 04:21:00,
2013-07-11 22:26:00,82.6,78.3,29.93,NNE,15,4.0,11.0,87,0.00,,,0.00,VWS V14.01,2013-07-12 04:26:00,
2013-07-11 22:30:00,82.7,78.4,29.92,ENE,68,4.0,11.0,87,0.00,,,0.00,VWS V15.00,2013-07-12 04:30:00,
2013-07-11 22:31:00,82.6,78.3,29.92,NNE,26,7.0,12.0,87,0.00,,,0.00,VWS V14.01,2013-07-12 04:31:00,
2013-07-11 22:36:00,82.7,78.1,29.92,ENE,76,4.0,14.0,86,0.00,,,0.00,VWS V14.01,2013-07-12 04:36:00,
2013-07-11 22:41:00,82.7,78.1,29.92,ENE,74,8.0,14.0,86,0.00,,,0.00,VWS V14.01,2013-07-12 04:41:00,
2013-07-11 22:46:00,82.8,78.2,29.92,ENE,72,3.0,14.0,86,0.00,,,0.00,VWS V14.01,2013-07-12 04:46:00,
2013-07-11 22:51:00,82.8,78.2,29.92,ENE,58,12.0,16.0,86,0.00,,,0.00,VWS V14.01,2013-07-12 04:51:00,
2013-07-11 22:56:00,82.9,77.9,29.92,ENE,73,7.0,16.0,85,0.00,,,0.00,VWS V14.01,2013-07-12 04:56:00,
2013-07-11 23:00:00,82.9,78.3,29.92,NNW,340,3.0,16.0,86,0.00,,,0.00,VWS V15.00,2013-07-12 05:00:00,
2013-07-11 23:01:00,82.9,78.3,29.92,NE,34,6.0,12.0,86,0.00,,,0.00,VWS V14.01,2013-07-12 05:01:00,
2013-07-11 23:06:00,82.9,77.9,29.92,ENE,63,6.0,12.0,85,0.00,,,0.00,VWS V14.01,2013-07-12 05:06:00,
2013-07-11 23:11:00,82.9,77.9,29.92,North,8,6.0,12.0,85,0.00,,,0.00,VWS V14.01,2013-07-12 05:11:00,
2013-07-11 23:16:00,82.8,77.8,29.92,NE,46,4.0,12.0,85,0.00,,,0.00,VWS V14.01,2013-07-12 05:16:00,
2013-07-11 23:21:00,82.8,77.8,29.91,NE,49,3.0,12.0,85,0.00,,,0.00,VWS V14.01,2013-07-12 05:21:00,
2013-07-11 23:26:00,82.8,77.8,29.91,ENE,76,5.0,13.0,85,0.00,,,0.00,VWS V14.01,2013-07-12 05:26:00,
2013-07-11 23:30:00,82.8,78.2,29.91,ENE,58,9.0,13.0,86,0.00,,,0.00,VWS V15.00,2013-07-12 05:30:00,
2013-07-11 23:31:00,82.8,78.2,29.91,NE,47,3.0,9.0,86,0.00,,,0.00,VWS V14.01,2013-07-12 05:31:00,
2013-07-11 23:36:00,82.8,78.2,29.91,East,82,6.0,9.0,86,0.00,,,0.00,VWS V14.01,2013-07-12 05:36:00,
2013-07-11 23:41:00,82.8,78.2,29.91,ENE,60,5.0,13.0,86,0.00,,,0.00,VWS V14.01,2013-07-12 05:41:00,
2013-07-11 23:46:00,82.8,78.2,29.91,NE,47,8.0,15.0,86,0.00,,,0.00,VWS V14.01,2013-07-12 05:46:00,
2013-07-11 23:51:00,82.9,78.3,29.91,ENE,70,8.0,15.0,86,0.00,,,0.00,VWS V14.01,2013-07-12 05:51:00,
2013-07-11 23:56:00,82.9,78.3,29.90,ENE,58,9.0,16.0,86,0.00,,,0.00,VWS V14.01,2013-07-12 05:56:00,